This is the latest recevied weather packets stored in our database for station/object OZ1IEP-5. If no packets are shown the sender has not sent any weather packets the latest 10 day(s).
| Time | Temp. | Humidity | Pressure | Rain* | Wind** | Luminosity | Snow |
|---|---|---|---|---|---|---|---|
| 1777834205 | 13.33° C | 84% | 1006.5 hPa | 0 mm | - | 0 W/m² | - |
| 1777833606 | 13.33° C | 84% | 1006.5 hPa | 0 mm | - | 0 W/m² | - |
| 1777833008 | 13.33° C | 83% | 1006.4 hPa | 0 mm | - | 7 W/m² | - |
| 1777832405 | 13.33° C | 82% | 1006.6 hPa | 0 mm | - | 14 W/m² | - |
| 1777831806 | 13.33° C | 82% | 1006.7 hPa | 0 mm | - | 14 W/m² | - |
| 1777831208 | 13.33° C | 83% | 1006.9 hPa | 0 mm | - | 14 W/m² | - |
| 1777830605 | 13.89° C | 84% | 1006.9 hPa | 0 mm | - | 21 W/m² | - |
| 1777830006 | 13.89° C | 83% | 1006.8 hPa | 0 mm | - | 28 W/m² | - |
| 1777829408 | 13.89° C | 83% | 1006.8 hPa | 0 mm | - | 37 W/m² | - |
| 1777828806 | 13.89° C | 82% | 1006.8 hPa | 0 mm | - | 40 W/m² | - |
| 1777828206 | 13.89° C | 82% | 1007.1 hPa | 0 mm | - | 60 W/m² | - |
| 1777827608 | 13.89° C | 81% | 1007.2 hPa | 0 mm | - | 53 W/m² | - |
| 1777827005 | 13.89° C | 80% | 1007.3 hPa | 0 mm | - | 70 W/m² | - |
| 1777826406 | 13.89° C | 81% | 1007.4 hPa | 0 mm | - | 79 W/m² | - |
| 1777825808 | 13.89° C | 81% | 1007.5 hPa | 0 mm | - | 90 W/m² | - |
| 1777825206 | 13.89° C | 81% | 1007.7 hPa | 0 mm | - | 109 W/m² | - |
| 1777824606 | 14.44° C | 81% | 1007.8 hPa | 0 mm | - | 111 W/m² | - |
| 1777824008 | 14.44° C | 81% | 1007.8 hPa | 0 mm | - | 134 W/m² | - |
| 1777823405 | 14.44° C | 79% | 1007.8 hPa | 0 mm | - | 134 W/m² | - |
| 1777822805 | 13.89° C | 80% | 1007.8 hPa | 0 mm | - | 153 W/m² | - |
| 1777822209 | 13.89° C | 80% | 1007.9 hPa | 0 mm | - | 97 W/m² | - |
| 1777821606 | 14.44° C | 82% | 1008.2 hPa | 0 mm | - | 74 W/m² | - |
| 1777821006 | 14.44° C | 81% | 1008.3 hPa | 0 mm | - | 90 W/m² | - |
| 1777820408 | 14.44° C | 82% | 1008.5 hPa | 0 mm | - | 97 W/m² | - |
| 1777819806 | 14.44° C | 83% | 1008.5 hPa | 0 mm | - | 176 W/m² | - |
* Rain latest hour (hover to see other rain measurements)
** Current wind speed in m/s (hover to see current wind gust speed)